Content
SEND FEEDBACK

Daily
Averages
Monthly
Summary
United States of America

RIMROCK, ARIZONA


Home > North America > United States > Arizona
Elevation: 3830 feet     Latitude: 34 40N     Longitude: 111 43W

WEATHER
 
SELECT A DAY
Number of Records: 130,005;   Date Range: 1/4/95 - 7/20/14
 
SHARE

PRINT THIS DATA

[ ← Previous Day ]
WEATHER ALMANAC - JULY 4, 2014
[ Next Day → ]
[ °C ]   °F
Weather ElementAverageHighLow
Temperature77.7 °F93.2 °F (2:55 pm)68 °F (4:35 am)
Dewpoint51.3 °F60.8 °F (8:35 pm)44.6 °F (1:15 pm)
Humidity43.1 %78 % (8:35 pm)20 % (2:55 pm)
Barometer30.23 in30.29 in (10:55 pm)30.15 in (5:15 pm)
Wind Speed8.9 mph21.9 mph (6:15 pm)
Wind Gust28.8 mph (6:15 pm)
Weather ElementAverage
Visibility10 mi
Wind DirectionSSE (159.9 °)

Weather ElementTotal
Precipitation---
Cooling Degree Days15.6 (Base 65)
Growing Degree Days30.6 (Base 50)
Averaged from 69 records on July 4, 2014
WEATHER CONDITIONS BREAKOUT
WIND DIRECTION BREAKOUT
WEATHER BY HOUR - JULY 4, 2014
[ °C ]   °F
Local TimeTemperatureDewpointHumidityBarometerVisibilityWind DirectionWind SpeedGust SpeedPrecipitationEventsConditions
12:35 AM73.4 °F46.4 °F38 %30.22 in10.0 miSouth (170°)8.1 mphClear
12:55 AM73.4 °F50.0 °F44 %30.23 in10.0 miSouth (170°)8.1 mphScattered Clouds
1:15 AM71.6 °F51.8 °F50 %30.23 in10.0 miSSE (150°)17.3 mphMostly Cloudy
1:35 AM71.6 °F53.6 °F53 %30.24 in10.0 miSSE (160°)5.8 mphOvercast
1:55 AM69.8 °F53.6 °F56 %30.24 in10.0 miSSE (160°)4.6 mphMostly Cloudy
2:15 AM69.8 °F53.6 °F56 %30.23 in10.0 miSSE (160°)15.0 mphScattered Clouds
2:35 AM69.8 °F53.6 °F56 %30.25 in10.0 miSSE (160°)5.8 mphClear
2:55 AM69.8 °F53.6 °F56 %30.26 in10.0 miNW (320°)4.6 mphClear
3:15 AM69.8 °F53.6 °F56 %30.26 in10.0 miWNW (300°)5.8 mphClear
3:35 AM69.8 °F53.6 °F56 %30.27 in10.0 miWest (280°)4.6 mphClear
3:55 AM69.8 °F53.6 °F56 %30.27 in10.0 miWNW (300°)6.9 mphScattered Clouds
4:15 AM69.8 °F55.4 °F60 %30.27 in10.0 miNNW (340°)6.9 mphMostly Cloudy
4:35 AM68.0 °F55.4 °F64 %30.28 in10.0 miNNE (30°)10.4 mphMostly Cloudy
4:55 AM68.0 °F55.4 °F64 %30.27 in10.0 miNNE (30°)9.2 mphScattered Clouds
5:15 AM68.0 °F53.6 °F60 %30.26 in10.0 miNNE (20°)8.1 mphClear
5:35 AM69.8 °F53.6 °F56 %30.26 in10.0 miNNE (20°)9.2 mphClear
5:55 AM69.8 °F53.6 °F56 %30.26 in10.0 miNNE (30°)9.2 mphScattered Clouds
6:15 AM69.8 °F53.6 °F56 %30.26 in10.0 miNE (50°)9.2 mphScattered Clouds
6:35 AM69.8 °F53.6 °F56 %30.25 in10.0 miNE (40°)9.2 mphClear
6:55 AM69.8 °F53.6 °F56 %30.25 in10.0 miNE (40°)5.8 mphClear
7:15 AM71.6 °F51.8 °F50 %30.25 in10.0 miCalmClear
7:35 AM71.6 °F53.6 °F53 %30.26 in10.0 miNW (310°)5.8 mphScattered Clouds
7:55 AM73.4 °F53.6 °F50 %30.26 in10.0 miNE (40°)4.6 mphOvercast
8:15 AM73.4 °F53.6 °F50 %30.26 in10.0 miCalmScattered Clouds
8:35 AM73.4 °F51.8 °F47 %30.25 in10.0 miCalmClear
9:15 AM78.8 °F50.0 °F36 %30.25 in10.0 miCalmClear
9:35 AM78.8 °F50.0 °F36 %30.25 in10.0 miWest (270°)4.6 mphClear
9:55 AM82.4 °F50.0 °F32 %30.25 in10.0 miSE (140°)4.6 mphClear
10:15 AM80.6 °F50.0 °F34 %30.25 in10.0 miSouth (180°)3.5 mphClear
10:35 AM84.2 °F50.0 °F30 %30.24 in10.0 miSSW (200°)5.8 mphClear
10:55 AM84.2 °F51.8 °F33 %30.24 in10.0 miSSE (160°)10.4 mph16.1 mphClear
11:15 AM86.0 °F51.8 °F31 %30.24 in10.0 miSouth (170°)9.2 mph17.3 mphClear
11:35 AM86.0 °F51.8 °F31 %30.24 in10.0 miSouth (170°)10.4 mphClear
11:55 AM91.4 °F51.8 °F26 %30.24 in10.0 miSSW (200°)9.2 mphClear
12:15 PM89.6 °F46.4 °F22 %30.23 in10.0 miSSW (210°)9.2 mphClear
12:35 PM87.8 °F46.4 °F24 %30.23 in10.0 miWSW (240°)5.8 mphClear
12:55 PM87.8 °F46.4 °F24 %30.21 in10.0 miSW (230°)4.6 mphClear
1:15 PM89.6 °F44.6 °F21 %30.21 in10.0 miSW (230°)6.9 mph16.1 mphClear
1:35 PM89.6 °F44.6 °F21 %30.20 in10.0 miWest (260°)8.1 mphClear
1:55 PM89.6 °F44.6 °F21 %30.19 in10.0 miSW (220°)12.7 mph17.3 mphClear
2:15 PM89.6 °F46.4 °F22 %30.19 in10.0 miWest (280°)9.2 mph16.1 mphClear
2:35 PM89.6 °F46.4 °F22 %30.18 in10.0 miWNW (290°)3.5 mph16.1 mphClear
2:55 PM93.2 °F46.4 °F20 %30.17 in10.0 miSouth (180°)16.1 mph19.6 mphMostly Cloudy
3:15 PM89.6 °F46.4 °F22 %30.17 in10.0 miSouth (190°)11.5 mph19.6 mphScattered Clouds
3:35 PM87.8 °F46.4 °F24 %30.17 in10.0 miSW (220°)10.4 mph17.3 mphClear
3:55 PM91.4 °F46.4 °F21 %30.17 in10.0 miWSW (250°)4.6 mph17.3 mphClear
4:15 PM89.6 °F46.4 °F22 %30.16 in10.0 miSouth (180°)3.5 mphClear
4:35 PM89.6 °F46.4 °F22 %30.16 in10.0 miSSW (200°)8.1 mphMostly Cloudy
4:55 PM89.6 °F46.4 °F22 %30.16 in10.0 miWSW (250°)10.4 mphThunderstormMostly Cloudy
5:15 PM87.8 °F46.4 °F24 %30.15 in10.0 miSouth (170°)5.8 mphThunderstormThunderstorm
5:35 PM89.6 °F46.4 °F22 %30.15 in10.0 miWest (270°)9.2 mphThunderstormMostly Cloudy
5:55 PM86.0 °F46.4 °F25 %30.16 in10.0 miSouth (170°)15.0 mph18.4 mphOvercast
6:15 PM84.2 °F46.4 °F27 %30.16 in10.0 miSSE (150°)21.9 mph28.8 mphThunderstormThunderstorm
6:35 PM82.4 °F48.2 °F30 %30.18 in10.0 miSSE (160°)9.2 mphThunderstormOvercast
6:55 PM82.4 °F48.2 °F30 %30.19 in10.0 miESE (120°)6.9 mphThunderstormMostly Cloudy
7:15 PM77.0 °F55.4 °F47 %30.21 in10.0 miWNW (300°)15.0 mphThunderstormThunderstorm
7:35 PM73.4 °F57.2 °F57 %30.23 in10.0 miNNW (330°)18.4 mphRain-ThunderstormLight Thunderstorms and Rain
7:55 PM71.6 °F59.0 °F64 %30.24 in10.0 miNNW (340°)17.3 mph23.0 mphRain-ThunderstormLight Thunderstorms and Rain
8:15 PM68.0 °F59.0 °F73 %30.24 in10.0 miNorth (360°)15.0 mphThunderstormOvercast
8:35 PM68.0 °F60.8 °F78 %30.24 in10.0 miNNE (30°)12.7 mphThunderstormDrizzle
9:15 PM68.0 °F55.4 °F64 %30.25 in10.0 miNNE (20°)18.4 mph25.3 mphThunderstormMostly Cloudy
9:35 PM68.0 °F55.4 °F64 %30.26 in10.0 miNNE (30°)18.4 mph25.3 mphScattered Clouds
9:55 PM69.8 °F55.4 °F60 %30.27 in10.0 miNE (50°)12.7 mph16.1 mphMostly Cloudy
10:15 PM69.8 °F55.4 °F60 %30.28 in10.0 miENE (60°)12.7 mph18.4 mphOvercast
10:35 PM69.8 °F53.6 °F56 %30.28 in10.0 miENE (60°)11.5 mph16.1 mphOvercast
10:55 PM69.8 °F53.6 °F56 %30.29 in10.0 miENE (60°)8.1 mphOvercast
11:15 PM71.6 °F53.6 °F53 %30.29 in10.0 miNNE (30°)10.4 mphOvercast
11:35 PM71.6 °F53.6 °F53 %30.28 in10.0 miENE (60°)8.1 mphOvercast
11:55 PM69.8 °F53.6 °F56 %30.28 in10.0 miENE (60°)11.5 mph16.1 mphOvercast
Hourly data recorded from KSEZ, located miles away from Rimrock, Arizona







STORIES FROM OUR PARTNERS